| time (UTC) | temp F | wind direction | speed MPH | gust MPH | rain 1hr in | rain 24hr in | rain mn in | humidity % | barometer mb |
| 20260904234331 | 90 | 124 | 3.0 | 5.0 | 0.00 | 0.00 | 0.00 | 60 | 1012.1 |
| 20260904233334 | 90 | 137 | 2.0 | 6.0 | 0.00 | 0.00 | 0.00 | 64 | 1012.0 |
| 20260904232340 | 90 | 138 | 3.0 | 7.0 | 0.00 | 0.00 | 0.00 | 64 | 1012.0 |
| 20260904231344 | 90 | 133 | 4.0 | 8.0 | 0.00 | 0.00 | 0.00 | 63 | 1011.9 |
| 20260904230346 | 91 | 112 | 1.0 | 4.0 | 0.00 | 0.00 | 0.00 | 63 | 1012.1 |
| 20260904225327 | 91 | 126 | 1.0 | 3.0 | 0.00 | 0.00 | 0.00 | 62 | 1012.1 |
| 20260904224332 | 91 | 39 | 0.0 | 2.0 | 0.00 | 0.00 | 0.00 | 63 | 1012.1 |
| 20260904223334 | 90 | 129 | 1.0 | 2.0 | 0.00 | 0.00 | 0.00 | 63 | 1012.3 |
| 20260904222339 | 90 | 129 | 1.0 | 3.0 | 0.00 | 0.00 | 0.00 | 66 | 1012.5 |
| 20260904221328 | 90 | 126 | 1.0 | 4.0 | 0.00 | 0.00 | 0.00 | 66 | 1012.5 |
| 20260904220352 | 90 | 120 | 2.0 | 6.0 | 0.00 | 0.00 | 0.00 | 67 | 1012.5 |
| 20260904215335 | 89 | 147 | 0.0 | 2.0 | 0.00 | 0.00 | 0.00 | 68 | 1012.6 |
| 20260904214342 | 90 | 129 | 2.0 | 3.0 | 0.00 | 0.00 | 0.00 | 68 | 1012.6 |
| 20260904213326 | 90 | 360 | 0.0 | 5.0 | 0.00 | 0.00 | 0.00 | 69 | 1012.7 |
| 20260904212351 | 90 | 137 | 1.0 | 2.0 | 0.00 | 0.00 | 0.00 | 68 | 1012.8 |
| 20260904211333 | 90 | 34 | 0.0 | 2.0 | 0.00 | 0.00 | 0.00 | 68 | 1012.8 |
| 20260904210337 | 89 | 83 | 1.0 | 4.0 | 0.00 | 0.00 | 0.00 | 69 | 1013.0 |
| 20260904205327 | 89 | 322 | 0.0 | 2.0 | 0.00 | 0.00 | 0.00 | 70 | 1013.1 |
| 20260904204333 | 88 | 111 | 0.0 | 2.0 | 0.00 | 0.00 | 0.00 | 71 | 1013.3 |
| 20260904203333 | 88 | 86 | 0.0 | 3.0 | 0.00 | 0.00 | 0.00 | 72 | 1013.4 |
| 20260904202339 | 87 | 360 | 0.0 | 0.0 | 0.00 | 0.00 | 0.00 | 73 | 1013.4 |
| 20260904201344 | 87 | 39 | 0.0 | 3.0 | 0.00 | 0.00 | 0.00 | 74 | 1013.6 |
| 20260904200330 | 86 | 44 | 0.0 | 3.0 | 0.00 | 0.00 | 0.00 | 75 | 1013.8 |
| 20260904195356 | 85 | 34 | 0.0 | 0.0 | 0.00 | 0.00 | 0.00 | 76 | 1013.9 |
| 20260904194325 | 84 | 105 | 0.0 | 3.0 | 0.00 | 0.00 | 0.00 | 76 | 1014.2 |
| 20260904193345 | 84 | 91 | 0.0 | 1.0 | 0.00 | 0.00 | 0.00 | 77 | 1014.2 |
| 20260904192330 | 84 | 118 | 0.0 | 2.0 | 0.00 | 0.00 | 0.00 | 75 | 1014.3 |
| 20260904191332 | 84 | 70 | 0.0 | 1.0 | 0.00 | 0.00 | 0.00 | 75 | 1014.2 |
| 20260904190335 | 83 | 131 | 0.0 | 2.0 | 0.00 | 0.00 | 0.00 | 76 | 1014.3 |
| 20260904185342 | 83 | 360 | 0.0 | 1.0 | 0.00 | 0.00 | 0.00 | 77 | 1014.5 |
| 20260904184328 | 83 | 54 | 0.0 | 1.0 | 0.00 | 0.00 | 0.00 | 79 | 1014.8 |
| 20260904183330 | 83 | 70 | 0.0 | 5.0 | 0.00 | 0.00 | 0.00 | 80 | 1015.0 |
| 20260904182356 | 84 | 50 | 0.0 | 1.0 | 0.00 | 0.00 | 0.00 | 80 | 1015.2 |
| 20260904181344 | 84 | 135 | 0.0 | 1.0 | 0.00 | 0.00 | 0.00 | 79 | 1015.2 |
| 20260904180327 | 85 | 348 | 0.0 | 6.0 | 0.00 | 0.00 | 0.00 | 77 | 1015.0 |
| 20260904175334 | 86 | 60 | 0.0 | 2.0 | 0.00 | 0.00 | 0.00 | 76 | 1015.1 |
| 20260904174340 | 86 | 18 | 0.0 | 0.0 | 0.00 | 0.00 | 0.00 | 76 | 1015.2 |
| 20260904173342 | 86 | 330 | 0.0 | 0.0 | 0.00 | 0.00 | 0.00 | 76 | 1015.2 |
| 20260904172344 | 86 | 330 | 0.0 | 1.0 | 0.00 | 0.00 | 0.00 | 76 | 1015.4 |
| 20260904171330 | 86 | 281 | 0.0 | 0.0 | 0.00 | 0.00 | 0.00 | 78 | 1015.4 |
| 20260904170339 | 85 | 270 | 0.0 | 0.0 | 0.00 | 0.00 | 0.00 | 77 | 1015.3 |
| 20260904165344 | 85 | 266 | 0.0 | 0.0 | 0.00 | 0.00 | 0.00 | 77 | 1015.4 |
| 20260904164328 | 85 | 266 | 0.0 | 3.0 | 0.00 | 0.00 | 0.00 | 74 | 1015.5 |
| 20260904163331 | 85 | 182 | 0.0 | 2.0 | 0.00 | 0.00 | 0.00 | 73 | 1015.6 |
| 20260904162337 | 83 | 220 | 0.0 | 1.0 | 0.00 | 0.00 | 0.00 | 76 | 1015.3 |
| 20260904161342 | 81 | 291 | 1.0 | 5.0 | 0.00 | 0.00 | 0.00 | 76 | 1015.0 |
| 20260904160324 | 81 | 222 | 2.0 | 7.0 | 0.00 | 0.00 | 0.00 | 82 | 1015.4 |
| 20260904155334 | 82 | 261 | 0.0 | 7.0 | 0.00 | 0.00 | 0.00 | 78 | 1015.1 |
| 20260904154357 | 86 | 328 | 0.0 | 2.0 | 0.00 | 0.00 | 0.00 | 82 | 1014.8 |
| 20260904153339 | 86 | 140 | 1.0 | 3.0 | 0.00 | 0.00 | 0.00 | 82 | 1014.8 |
| 20260904152324 | 86 | 138 | 0.0 | 4.0 | 0.00 | 0.00 | 0.00 | 83 | 1014.8 |
| 20260904151330 | 86 | 135 | 1.0 | 4.0 | 0.00 | 0.00 | 0.00 | 82 | 1014.8 |
| 20260904150331 | 86 | 135 | 0.0 | 0.0 | 0.00 | 0.00 | 0.00 | 83 | 1014.8 |
| 20260904145336 | 85 | 160 | 0.0 | 0.0 | 0.00 | 0.00 | 0.00 | 85 | 1014.7 |
| 20260904144326 | 84 | 160 | 0.0 | 0.0 | 0.00 | 0.00 | 0.00 | 85 | 1014.7 |
| 20260904143331 | 84 | 160 | 0.0 | 0.0 | 0.00 | 0.00 | 0.00 | 85 | 1014.7 |
| 20260904142335 | 84 | 160 | 0.0 | 0.0 | 0.00 | 0.00 | 0.00 | 86 | 1014.6 |
| 20260904141339 | 84 | 128 | 0.0 | 0.0 | 0.00 | 0.00 | 0.00 | 87 | 1014.5 |
| 20260904140342 | 83 | 122 | 0.0 | 0.0 | 0.00 | 0.00 | 0.00 | 88 | 1014.6 |
| 20260904135329 | 82 | 139 | 0.0 | 0.0 | 0.00 | 0.00 | 0.00 | 89 | 1014.7 |
| 20260904134333 | 82 | 122 | 0.0 | 0.0 | 0.00 | 0.00 | 0.00 | 90 | 1014.5 |
| 20260904133336 | 81 | 117 | 0.0 | 0.0 | 0.00 | 0.00 | 0.00 | 91 | 1014.4 |
| 20260904132344 | 81 | 128 | 0.0 | 0.0 | 0.00 | 0.00 | 0.00 | 92 | 1014.3 |
| 20260904131330 | 80 | 128 | 0.0 | 0.0 | 0.00 | 0.00 | 0.00 | 93 | 1014.1 |
| 20260904130334 | 80 | 128 | 0.0 | 0.0 | 0.00 | 0.00 | 0.00 | 93 | 1014.1 |
| 20260904125341 | 80 | 127 | 0.0 | 0.0 | 0.00 | 0.00 | 0.00 | 93 | 1014.1 |
| 20260904124344 | 79 | 128 | 0.0 | 0.0 | 0.00 | 0.00 | 0.00 | 93 | 1013.9 |
| 20260904123347 | 79 | 127 | 0.0 | 0.0 | 0.00 | 0.00 | 0.00 | 93 | 1013.8 |
| 20260904122349 | 80 | 128 | 0.0 | 0.0 | 0.00 | 0.00 | 0.00 | 92 | 1013.7 |
| 20260904121338 | 80 | 127 | 0.0 | 0.0 | 0.00 | 0.00 | 0.00 | 92 | 1013.6 |
| 20260904120343 | 80 | 128 | 0.0 | 0.0 | 0.00 | 0.00 | 0.00 | 92 | 1013.7 |
| 20260904115327 | 80 | 128 | 0.0 | 0.0 | 0.00 | 0.00 | 0.00 | 92 | 1013.5 |
| 20260904114333 | 80 | 128 | 0.0 | 0.0 | 0.00 | 0.00 | 0.00 | 92 | 1013.5 |
| 20260904113337 | 80 | 135 | 0.0 | 0.0 | 0.00 | 0.00 | 0.00 | 92 | 1013.4 |
| 20260904112342 | 80 | 133 | 0.0 | 0.0 | 0.00 | 0.00 | 0.00 | 92 | 1013.2 |
| 20260904111328 | 80 | 133 | 0.0 | 0.0 | 0.00 | 0.00 | 0.00 | 92 | 1013.2 |
| 20260904110337 | 80 | 128 | 0.0 | 0.0 | 0.00 | 0.00 | 0.00 | 92 | 1013.3 |
| 20260904105341 | 80 | 131 | 0.0 | 0.0 | 0.00 | 0.00 | 0.00 | 92 | 1013.3 |
| 20260904104325 | 80 | 143 | 0.0 | 3.0 | 0.00 | 0.00 | 0.00 | 92 | 1013.4 |
| 20260904103327 | 80 | 126 | 0.0 | 3.0 | 0.00 | 0.00 | 0.00 | 92 | 1013.1 |
| 20260904102332 | 80 | 132 | 2.0 | 3.0 | 0.00 | 0.00 | 0.00 | 92 | 1013.1 |
| 20260904101357 | 80 | 127 | 1.0 | 3.0 | 0.00 | 0.00 | 0.00 | 92 | 1013.0 |
| 20260904100339 | 80 | 133 | 1.0 | 3.0 | 0.00 | 0.00 | 0.00 | 92 | 1013.0 |
| 20260904095344 | 80 | 112 | 1.0 | 3.0 | 0.00 | 0.00 | 0.00 | 92 | 1012.9 |
| 20260904094331 | 80 | 123 | 0.0 | 0.0 | 0.00 | 0.00 | 0.00 | 92 | 1012.8 |
| 20260904093337 | 80 | 123 | 0.0 | 0.0 | 0.00 | 0.00 | 0.00 | 92 | 1012.7 |
| 20260904091326 | 80 | 123 | 0.0 | 0.0 | 0.00 | 0.00 | 0.00 | 93 | 1012.7 |
| 20260904090330 | 80 | 123 | 0.0 | 0.0 | 0.00 | 0.00 | 0.00 | 93 | 1012.7 |
| 20260904085357 | 80 | 123 | 0.0 | 0.0 | 0.00 | 0.00 | 0.00 | 92 | 1012.8 |
| 20260904084341 | 80 | 123 | 0.0 | 0.0 | 0.00 | 0.00 | 0.00 | 92 | 1012.9 |
| 20260904083338 | 80 | 123 | 0.0 | 0.0 | 0.00 | 0.00 | 0.00 | 92 | 1013.0 |
| 20260904082344 | 80 | 123 | 0.0 | 0.0 | 0.00 | 0.00 | 0.00 | 92 | 1013.0 |
| 20260904081332 | 80 | 128 | 0.0 | 0.0 | 0.00 | 0.00 | 0.00 | 92 | 1013.0 |
| 20260904080335 | 80 | 128 | 0.0 | 1.0 | 0.00 | 0.00 | 0.00 | 92 | 1013.0 |
| 20260904075341 | 80 | 134 | 1.0 | 2.0 | 0.00 | 0.00 | 0.00 | 92 | 1013.0 |
| 20260904074326 | 80 | 128 | 1.0 | 3.0 | 0.00 | 0.00 | 0.00 | 92 | 1013.1 |
| 20260904073328 | 80 | 129 | 2.0 | 3.0 | 0.00 | 0.00 | 0.00 | 92 | 1013.1 |
| 20260904072333 | 80 | 120 | 2.0 | 3.0 | 0.00 | 0.00 | 0.00 | 92 | 1013.1 |
| 20260904071337 | 80 | 120 | 2.0 | 3.0 | 0.00 | 0.00 | 0.00 | 92 | 1013.2 |
| 20260904070340 | 80 | 131 | 0.0 | 0.0 | 0.00 | 0.00 | 0.00 | 91 | 1013.4 |
| 20260904065327 | 80 | 130 | 0.0 | 1.0 | 0.00 | 0.00 | 0.00 | 91 | 1013.5 |
| 20260904064332 | 80 | 131 | 0.0 | 0.0 | 0.00 | 0.00 | 0.00 | 91 | 1013.6 |
| 20260904063331 | 80 | 131 | 0.0 | 1.0 | 0.00 | 0.00 | 0.00 | 91 | 1013.6 |
| 20260904062338 | 80 | 130 | 0.0 | 2.0 | 0.00 | 0.00 | 0.00 | 91 | 1013.5 |
| 20260904061341 | 81 | 128 | 0.0 | 2.0 | 0.00 | 0.00 | 0.00 | 91 | 1013.4 |
| 20260904060403 | 81 | 128 | 1.0 | 2.0 | 0.00 | 0.00 | 0.00 | 91 | 1013.4 |
| 20260904055327 | 81 | 122 | 0.0 | 3.0 | 0.00 | 0.00 | 0.00 | 90 | 1013.4 |
| 20260904054330 | 81 | 130 | 2.0 | 3.0 | 0.00 | 0.00 | 0.00 | 91 | 1013.3 |
| 20260904053330 | 81 | 131 | 1.0 | 2.0 | 0.00 | 0.00 | 0.00 | 91 | 1013.2 |
| 20260904052334 | 81 | 140 | 0.0 | 2.0 | 0.00 | 0.00 | 0.00 | 90 | 1013.1 |
| 20260904051341 | 81 | 149 | 1.0 | 4.0 | 0.00 | 0.00 | 0.00 | 90 | 1013.1 |
| 20260904050404 | 81 | 137 | 1.0 | 3.0 | 0.00 | 0.00 | 0.00 | 90 | 1013.1 |
| 20260904045348 | 81 | 137 | 2.0 | 3.0 | 0.00 | 0.00 | 0.05 | 90 | 1013.1 |
| 20260904044332 | 81 | 141 | 2.0 | 3.0 | 0.00 | 0.00 | 0.05 | 90 | 1013.1 |
| 20260904043355 | 81 | 147 | 0.0 | 0.0 | 0.00 | 0.00 | 0.05 | 90 | 1013.2 |
| 20260904042340 | 81 | 157 | 0.0 | 3.0 | 0.00 | 0.00 | 0.05 | 90 | 1013.2 |
| 20260904041344 | 81 | 139 | 1.0 | 4.0 | 0.00 | 0.00 | 0.05 | 90 | 1013.3 |
| 20260904040327 | 81 | 132 | 3.0 | 4.0 | 0.00 | 0.00 | 0.05 | 90 | 1013.3 |
| 20260904035333 | 81 | 128 | 2.0 | 4.0 | 0.00 | 0.00 | 0.05 | 90 | 1013.3 |
| 20260904034324 | 81 | 127 | 2.0 | 7.0 | 0.00 | 0.00 | 0.05 | 90 | 1013.3 |
| 20260904033328 | 81 | 144 | 2.0 | 4.0 | 0.00 | 0.00 | 0.05 | 90 | 1013.3 |
| 20260904032332 | 81 | 129 | 2.0 | 6.0 | 0.00 | 0.00 | 0.05 | 90 | 1013.3 |
| 20260904031339 | 80 | 129 | 2.0 | 4.0 | 0.00 | 0.00 | 0.05 | 90 | 1013.3 |
| 20260904030341 | 80 | 135 | 2.0 | 3.0 | 0.00 | 0.00 | 0.05 | 90 | 1013.2 |
| 20260904025326 | 80 | 135 | 0.0 | 0.0 | 0.00 | 0.00 | 0.02 | 90 | 1013.1 |
| 20260904024335 | 80 | 128 | 0.0 | 0.0 | 0.00 | 0.00 | 0.02 | 89 | 1013.1 |
| 20260904023339 | 80 | 130 | 0.0 | 1.0 | 0.00 | 0.00 | 0.02 | 89 | 1013.0 |
| 20260904022344 | 80 | 143 | 1.0 | 4.0 | 0.00 | 0.00 | 0.02 | 89 | 1012.9 |
| 20260904021328 | 80 | 133 | 2.0 | 4.0 | 0.00 | 0.00 | 0.02 | 88 | 1012.9 |
| 20260904020333 | 80 | 134 | 0.0 | 1.0 | 0.00 | 0.00 | 0.02 | 88 | 1012.8 |
| 20260904015338 | 80 | 135 | 0.0 | 3.0 | 0.00 | 0.00 | 0.02 | 88 | 1012.7 |
| 20260904014344 | 80 | 172 | 2.0 | 3.0 | 0.00 | 0.00 | 0.02 | 87 | 1012.5 |
| 20260904013344 | 80 | 135 | 0.0 | 0.0 | 0.00 | 0.00 | 0.02 | 87 | 1012.4 |
| 20260904012333 | 80 | 107 | 0.0 | 1.0 | 0.00 | 0.00 | 0.02 | 86 | 1012.4 |
| 20260904011358 | 80 | 112 | 0.0 | 2.0 | 0.00 | 0.00 | 0.02 | 86 | 1012.4 |
| 20260904010339 | 80 | 116 | 1.0 | 2.0 | 0.00 | 0.00 | 0.02 | 85 | 1012.3 |
| 20260904005325 | 81 | 82 | 0.0 | 2.0 | 0.00 | 0.00 | 0.02 | 85 | 1012.3 |
| 20260904004331 | 81 | 144 | 0.0 | 2.0 | 0.00 | 0.00 | 0.02 | 85 | 1012.3 |
| 20260904003333 | 81 | 133 | 0.0 | 2.0 | 0.00 | 0.00 | 0.02 | 85 | 1012.2 |
| 20260904002336 | 81 | 145 | 0.0 | 2.0 | 0.00 | 0.00 | 0.02 | 85 | 1012.1 |
| 20260904001341 | 81 | 116 | 0.0 | 1.0 | 0.00 | 0.00 | 0.02 | 85 | 1012.1 |
| 20260904000328 | 81 | 110 | 1.0 | 5.0 | 0.00 | 0.00 | 0.02 | 84 | 1012.3 |
| 20260903235353 | 82 | 53 | 1.0 | 3.0 | 0.00 | 0.02 | 0.02 | 84 | 1012.3 |